Погода Верхний Баскунчак

Погода Верхний Баскунчак : погода сейчас, прогноз погоды и архив. Всё, что Вы хотите узнать о погоде Верхний Баскунчак!

Хотите узнать прогноз погоды Верхний Баскунчак? Тогда Вам сюда: Погода Верхний Баскунчак

Поиск расширенной информации на нашем сайте:

Другие новости

Новости СМИ2

Главная страница сайта

Новости сайта

03.07.2017

Напоминаем, что на нашем специализированном сайте Метеоцентр.Азия вы можете получить высокодетализированные автоматические прогнозы погоды по пунктам России, СНГ и мира в авиационном формате (включающие направление и скорость ветра, видимость, явления погоды, количество и форму облачности, нижнюю и верхнюю границу облачности).


Погода Верхний Баскунчак - сегодня

Время (UTC), дата Ветер
(°,м/с) 
Видим.   Явления Облачность Т
(°С)
Тd
(°С)
f(%) Тe
(°С)
Pmin
(гПа)
dP
(гПа)
Po
(мм)
O2
(г/м3)
Тmin Tmax R s Состояние
почвы
03 19.11.17 090 (В) 4000 м  дымка  10/0 средняя 
[Ac und]
+1.7 -0 88 1022.4  -1.4  763  306  +0.1         
06 19.11.17 090 (В) 4000 м  дымка  10/0 средняя 
[Ac und]
+2.8 +0.7 86 +1  1022.2  -0.2  763  304           
09 19.11.17 100 (В) 20000 м    4/0 средняя, верхняя 
[Ac trans|Ci fib]
+7.8 +2.6 70 +7  1020.3  -1.8  762  298           
12 19.11.17 110 (В) 20000 м    9/0 средняя 
[Ac trans]
+7.9 +4.3 78 +7  1019.3  -1  761  297           
15 19.11.17 110 (В) 4000 м  дымка  10/0 средняя 
[Ac und]
+6.2 +5 92 +5  1018.9  -0.4  761  299    +8.7       
18 19.11.17 120 (ЮВ) 4000 м  дымка  10/0 средняя 
[Ac und]
+5.8 +4.4 91 +5  1018.8  -0.1  761  300           
21 19.11.17 100 (В) 4000 м  дымка  10/0 средняя 
[Ac und]
+5.5 +4 90 +4  1017.9  -0.9  760  300           
00 20.11.17 070 (В) 4000 м  дымка  10/0 средняя 
[Ac und]
+4.5 +2.8 89 +3  1017.3  -0.6  760  301           
03 20.11.17 070 (В) 4000 м  дымка  6/0 верхняя 
[Ci fib]
+2.3 +1.3 93 +1  1016.9  -0.4  759  303  +2.3         
06 20.11.17 080 (В) 4000 м  дымка  10/10 600 м 
[Sc]
+4.8 +3.1 89 +4  1016.5  -0.4  759  300  +2.2         
09 20.11.17 090 (В) 20000 м    10/0 средняя 
[Ac und]
+8.1 +3.8 74 +7  1015  -1.4  758  296           
12 20.11.17 080 (В) 20000 м    10/0 средняя 
[Ac und]
+7.5 +3.3 75 +6  1013.8  -1.3  757  296           
15 20.11.17 080 (В) 20000 м    8/0 средняя 
[Ac trans]
+5.1 +1.2 76 +3  1013.5  -0.3  757  299    +8.7       
18 20.11.17 080 (В) 20000 м    ясно 
+3.1 -0 80 +2  1012.2  -1.3  756  301           
21 20.11.17 070 (В) 4000 м  дымка  ясно 
+1.3 -0.8 86 1010.5  -1.8  755  303           
00 21.11.17 010 (С) 4000 м  дымка  ясно 
+0.1 -1.3 90 +1  1009.2  -1.2  754  304           
03 21.11.17 010 (С) 4000 м  дымка  ясно 
-0.3 -1.3 93 1007.9  -1.3  753  304  -1         
06 21.11.17 070 (В) 4000 м  дымка  ясно 
+1.1 -0.6 88 1007.3  -0.6  752  302  -2.1         
09 21.11.17 080 (В) 20000 м    3/0 верхняя 
[Ci fib]
+6.7 +2.4 74 +7  1006.5  -0.7  752  295           
12 21.11.17 080 (В) 20000 м    8/0 верхняя 
[Ci sp]
+7.8 +3.2 73 +8  1005.1  -1.4  751  294           
15 21.11.17 060 (СВ) 20000 м    8/0 верхняя 
[Ci sp]
+5.4 +2.9 84 +4  1004.2  -0.9  750  296    +8.3       
18 21.11.17 070 (В) 4000 м  дымка  6/0 средняя 
[Ac trans]
+4.8 +2.8 87 +3  1002.3  -1.9  749  296           
21 21.11.17 080 (В) 4000 м  дымка  10/0 средняя 
[Ac und]
+5.1 +4.5 96 +5  1001.6  -0.8  748  295           
00 22.11.17 060 (СВ) 2000 м  дымка  10/0 средняя 
[Ac und]
+6.2 +5.8 97 +7  1001.3  -0.2  748  294           
03 22.11.17 060 (СВ) 2000 м  дымка  10/0 средняя 
[Ac und]
+5.9 +5.5 97 +7  1001.5  0.2  748  294  +3.8         
Время (UTC), дата Ветер
(°,м/с) 
Видим.   Явления Облачность Т
(°С)
Тd
(°С)
f(%) Тe
(°С)
Pmin
(гПа)
dP
(гПа)
Po
(мм)
O2
(г/м3)
Тmin Tmax R s Состояние
почвы

Для получения пояснительной информации подведите курсор к названию столбца.

ПОГОДА Верхний Баскунчак - архив

Всё, что Вы хотите узнать о погоде Верхний Баскунчак - удобно и подробно!

Выберите нужную дату (начиная с 1 января 2015* года) и нажмите кнопку "Найти".
Будут отображены архивные сводки погоды по пункту Верхний Баскунчак, начиная с указанной даты.


Отображать данные в формате CSV (для использования в таблицах Excel)


Внимание! Наш архив погоды предназначен исключительно для личного некоммерческого использования в познавательных целях. Если Вам необходимы официальные справки о состоянии погоды (для производственных, юридических, коммерческих и т.п. целей), обращайтесь в органы Росгидромета.

*Примечание: данная дата относится к архиву по метеостанциям СССР (Россия, СНГ, Балтия).
Архив по метеостанциям Зарубежной Европы и Азии (кроме Китая) хранится 10 дней, по другим регионам земного шара (Китай, Африка, Америка, Австралия, Океания) - 1 день.

Верхний Баскунчак - район местоположения метеостанции


Название, широта, долгота, высота метеостанции:
Верхний Баскунчак 48.2°ш. 46.7°д. 34 м над ур. моря [Российская Федерация]

Дополнительная информация

В oтличие oт бoльшинства пoгoдных сайтoв мы публикуем пoдрoбную метеoинфoрмацию в детальнoм прoфессиoнальнoм фoрмате.

Характеристики температуры и влажнoсти вoздуха измеряются на высoте 2 м в тени вдали oт зданий и деревьев.
Скoрoсть ветра измеряется на высoте 10 м (на урoвне рoста челoвека скoрoсть ветра ниже в 1.5-2 раза). Если метеoстанция нахoдится в гoрoде или в лесу, тo скoрoсть ветра занижена на 2-4 м/с пo сравнению с oткрытым местoм. Скoрoсть ветра над акватoриями крупных рек и oзёр, а также на вершинах хoлмoв на 2-5 м/с выше, чем в oбычных услoвиях.
Атмoсфернoе давление в разных тoчках местнoсти мoжет значительнo oтличаться oт давления на метеoстанции, в зависимoсти oт услoвий рельефа (при пoдъёме на 10 м давление пoнижается примернo на 1 мм рт.ст.).